• In Deutschland
  • Länderverzeichnis
  • Für 7 Tage
  • Wassertemperatur
  • Satellitenkarten
  • Wetterkarte
  • Widgets
  • user-avatar
    Anmelden

    Stündliche Wetter Polotsk

    Heute, 25 September, Montag

    Zeit Temperatur Niederschläge Wind Luftdruck Luftfeuchtigkeit
    00:00 +10°C° 0 mm 3 m/S 761 mmHg 83%
    01:00 +9°C° 0 mm 3 m/S 761 mmHg 85%
    02:00 +9°C° 0 mm 3 m/S 761 mmHg 87%
    03:00 +9°C° 0 mm 3 m/S 761 mmHg 89%
    04:00 +8°C° 0 mm 3 m/S 761 mmHg 90%
    05:00 +8°C° 0 mm 3 m/S 762 mmHg 92%
    06:00 +8°C° 0 mm 3 m/S 762 mmHg 89%
    07:00 +8°C° 0 mm 4 m/S 762 mmHg 85%
    08:00 +10°C° 0 mm 4 m/S 762 mmHg 82%
    09:00 +11°C° 0 mm 4 m/S 762 mmHg 76%
    10:00 +13°C° 0 mm 4 m/S 762 mmHg 69%
    11:00 +15°C° 0 mm 4 m/S 762 mmHg 63%
    12:00 +17°C° 0 mm 4 m/S 762 mmHg 61%
    13:00 +17°C° 0 mm 4 m/S 762 mmHg 59%
    14:00 +18°C° 0 mm 4 m/S 762 mmHg 57%
    15:00 +17°C° 0 mm 4 m/S 762 mmHg 62%
    16:00 +17°C° 0 mm 3 m/S 762 mmHg 67%
    17:00 +16°C° 0 mm 3 m/S 762 mmHg 71%
    18:00 +13°C° 0 mm 3 m/S 762 mmHg 76%
    19:00 +12°C° 0 mm 3 m/S 763 mmHg 81%
    20:00 +10°C° 0 mm 3 m/S 763 mmHg 85%
    21:00 +10°C° 0 mm 2 m/S 763 mmHg 86%
    22:00 +9°C° 0 mm 2 m/S 763 mmHg 88%
    23:00 +8°C° 0 mm 2 m/S 763 mmHg 89%

    Morgen, 26 September, Dienstag

    Zeit Temperatur Niederschläge Wind Luftdruck Luftfeuchtigkeit
    00:00 +8°C° 0 mm 2 m/S 763 mmHg 89%
    01:00 +8°C° 0 mm 2 m/S 763 mmHg 90%
    02:00 +7°C° 0 mm 2 m/S 763 mmHg 90%
    03:00 +7°C° 0 mm 2 m/S 763 mmHg 91%
    04:00 +7°C° 0 mm 2 m/S 763 mmHg 91%
    05:00 +6°C° 0 mm 2 m/S 763 mmHg 92%
    06:00 +7°C° 0 mm 2 m/S 763 mmHg 88%
    07:00 +8°C° 0 mm 2 m/S 764 mmHg 84%
    08:00 +9°C° 0 mm 2 m/S 764 mmHg 81%
    09:00 +12°C° 0 mm 2 m/S 764 mmHg 74%
    10:00 +13°C° 0 mm 3 m/S 764 mmHg 68%
    11:00 +14°C° 0 mm 3 m/S 764 mmHg 61%
    12:00 +16°C° 0 mm 3 m/S 764 mmHg 59%
    13:00 +17°C° 0 mm 3 m/S 764 mmHg 57%
    14:00 +17°C° 0 mm 3 m/S 764 mmHg 55%
    15:00 +17°C° 0 mm 3 m/S 763 mmHg 60%
    16:00 +16°C° 0 mm 2 m/S 763 mmHg 65%
    17:00 +15°C° 0 mm 2 m/S 763 mmHg 70%
    18:00 +14°C° 0 mm 2 m/S 764 mmHg 75%
    19:00 +12°C° 0 mm 2 m/S 764 mmHg 80%
    20:00 +10°C° 0 mm 2 m/S 764 mmHg 86%
    21:00 +10°C° 0 mm 2 m/S 764 mmHg 88%
    22:00 +9°C° 0 mm 2 m/S 764 mmHg 91%
    23:00 +9°C° 0 mm 2 m/S 764 mmHg 94%

    übermorgen, 27 September, Mittwoch

    Zeit Temperatur Niederschläge Wind Luftdruck Luftfeuchtigkeit
    00:00 +9°C° 0 mm 2 m/S 765 mmHg 95%
    01:00 +8°C° 0 mm 2 m/S 765 mmHg 95%
    02:00 +8°C° 0 mm 2 m/S 765 mmHg 96%
    03:00 +7°C° 0 mm 2 m/S 765 mmHg 96%
    04:00 +7°C° 0 mm 2 m/S 765 mmHg 96%
    05:00 +6°C° 0 mm 2 m/S 765 mmHg 96%
    06:00 +7°C° 0 mm 2 m/S 765 mmHg 93%
    07:00 +8°C° 0 mm 2 m/S 766 mmHg 90%
    08:00 +8°C° 0 mm 2 m/S 766 mmHg 87%
    09:00 +10°C° 0 mm 2 m/S 766 mmHg 79%
    10:00 +13°C° 0 mm 2 m/S 766 mmHg 71%
    11:00 +14°C° 0 mm 2 m/S 766 mmHg 63%
    12:00 +15°C° 0 mm 2 m/S 766 mmHg 60%
    13:00 +16°C° 0 mm 2 m/S 766 mmHg 57%
    14:00 +16°C° 0 mm 2 m/S 766 mmHg 54%
    15:00 +16°C° 0 mm 2 m/S 766 mmHg 59%
    16:00 +15°C° 0 mm 1 m/S 765 mmHg 64%
    17:00 +14°C° 0 mm 1 m/S 765 mmHg 68%
    18:00 +13°C° 0 mm 1 m/S 765 mmHg 72%
    19:00 +12°C° 0 mm 1 m/S 765 mmHg 76%
    20:00 +10°C° 0 mm 1 m/S 765 mmHg 81%
    21:00 +10°C° 0 mm 1 m/S 765 mmHg 83%
    22:00 +9°C° 0 mm 1 m/S 765 mmHg 85%
    23:00 +9°C° 0 mm 1 m/S 766 mmHg 88%

    28 September, Donnerstag

    Zeit Temperatur Niederschläge Wind Luftdruck Luftfeuchtigkeit
    00:00 +9°C° 0 mm 1 m/S 766 mmHg 89%
    01:00 +8°C° 0 mm 1 m/S 766 mmHg 90%
    02:00 +8°C° 0 mm 1 m/S 766 mmHg 91%
    03:00 +7°C° 0 mm 0 m/S 765 mmHg 92%
    04:00 +7°C° 0 mm 0 m/S 765 mmHg 92%
    05:00 +6°C° 0 mm 0 m/S 765 mmHg 92%
    06:00 +7°C° 0 mm 0 m/S 765 mmHg 89%
    07:00 +8°C° 0 mm 0 m/S 765 mmHg 86%
    08:00 +9°C° 0 mm 0 m/S 765 mmHg 83%
    09:00 +12°C° 0 mm 1 m/S 765 mmHg 78%
    10:00 +13°C° 0 mm 1 m/S 766 mmHg 72%
    11:00 +15°C° 0 mm 1 m/S 766 mmHg 66%
    12:00 +15°C° 0 mm 1 m/S 765 mmHg 66%
    13:00 +15°C° 0 mm 1 m/S 765 mmHg 65%
    14:00 +15°C° 0 mm 1 m/S 765 mmHg 64%
    15:00 +14°C° 0 mm 1 m/S 765 mmHg 68%
    16:00 +14°C° 0 mm 1 m/S 764 mmHg 71%
    17:00 +13°C° 0 mm 1 m/S 764 mmHg 75%
    18:00 +13°C° 0 mm 1 m/S 764 mmHg 76%
    19:00 +12°C° 0 mm 1 m/S 764 mmHg 76%
    20:00 +12°C° 0 mm 1 m/S 764 mmHg 77%
    21:00 +11°C° 0 mm 1 m/S 764 mmHg 78%
    22:00 +11°C° 0 mm 1 m/S 764 mmHg 78%
    23:00 +11°C° 0 mm 1 m/S 764 mmHg 79%

    29 September, Freitag

    Zeit Temperatur Niederschläge Wind Luftdruck Luftfeuchtigkeit
    00:00 +11°C° 0 mm 1 m/S 764 mmHg 80%
    01:00 +10°C° 0 mm 1 m/S 764 mmHg 80%
    02:00 +10°C° 0 mm 1 m/S 764 mmHg 81%
    03:00 +9°C° 0 mm 1 m/S 764 mmHg 83%
    04:00 +9°C° 0 mm 1 m/S 763 mmHg 84%
    05:00 +9°C° 0 mm 1 m/S 763 mmHg 86%
    06:00 +9°C° 0 mm 1 m/S 763 mmHg 84%
    07:00 +10°C° 0 mm 1 m/S 763 mmHg 82%
    08:00 +10°C° 0 mm 1 m/S 763 mmHg 80%
    09:00 +12°C° 0 mm 1 m/S 763 mmHg 75%
    10:00 +13°C° 0 mm 2 m/S 762 mmHg 70%
    11:00 +15°C° 0 mm 2 m/S 762 mmHg 64%
    12:00 +15°C° 0 mm 2 m/S 761 mmHg 64%
    13:00 +16°C° 0 mm 2 m/S 761 mmHg 63%
    14:00 +16°C° 0 mm 3 m/S 760 mmHg 63%
    15:00 +16°C° 0 mm 2 m/S 760 mmHg 68%
    16:00 +15°C° 0 mm 2 m/S 759 mmHg 72%
    17:00 +15°C° 0 mm 2 m/S 759 mmHg 77%
    18:00 +14°C° 0 mm 2 m/S 759 mmHg 82%
    19:00 +12°C° 0 mm 2 m/S 758 mmHg 87%
    20:00 +10°C° 0 mm 2 m/S 758 mmHg 91%
    21:00 +10°C° 0 mm 2 m/S 758 mmHg 92%
    22:00 +10°C° 0 mm 2 m/S 758 mmHg 92%
    23:00 +10°C° 0 mm 2 m/S 758 mmHg 93%

    30 September, Samstag

    Zeit Temperatur Niederschläge Wind Luftdruck Luftfeuchtigkeit
    00:00 +10°C° 0 mm 2 m/S 758 mmHg 91%
    01:00 +10°C° 0 mm 3 m/S 758 mmHg 90%
    02:00 +9°C° 0 mm 3 m/S 758 mmHg 88%
    03:00 +9°C° 0 mm 3 m/S 758 mmHg 85%
    04:00 +9°C° 0 mm 3 m/S 758 mmHg 81%
    05:00 +9°C° 0 mm 3 m/S 758 mmHg 78%
    06:00 +9°C° 0 mm 3 m/S 758 mmHg 77%
    07:00 +9°C° 0 mm 3 m/S 758 mmHg 76%
    08:00 +9°C° 0 mm 3 m/S 758 mmHg 75%
    09:00 +10°C° 0 mm 4 m/S 758 mmHg 71%
    10:00 +11°C° 0 mm 4 m/S 758 mmHg 66%
    11:00 +11°C° 0 mm 4 m/S 759 mmHg 62%
    12:00 +12°C° 0 mm 4 m/S 758 mmHg 60%
    13:00 +12°C° 0 mm 4 m/S 758 mmHg 59%
    14:00 +13°C° 0 mm 3 m/S 758 mmHg 57%
    15:00 +12°C° 0 mm 3 m/S 758 mmHg 61%
    16:00 +13°C° 0 mm 2 m/S 758 mmHg 65%
    17:00 +12°C° 0 mm 2 m/S 758 mmHg 68%
    18:00 +10°C° 0 mm 2 m/S 758 mmHg 71%
    19:00 +9°C° 0 mm 2 m/S 758 mmHg 75%
    20:00 +8°C° 0 mm 2 m/S 758 mmHg 78%
    21:00 +7°C° 0 mm 2 m/S 758 mmHg 81%
    22:00 +7°C° 0 mm 2 m/S 759 mmHg 83%
    23:00 +6°C° 0 mm 2 m/S 759 mmHg 86%
    Mehr zeigen